Theta_e
315 317 319 322 324 325 327 327 328 329 330 327 326 323 321 319 317 317 311 303 297 296 296 296 295 294 293 293 292 292 292 291 290 290 289 289 289 289 289 289 289 289 288
314 316 318 318 317 316 314 314 324 326 328 328 325 322 320 317 316 312 304 297 296 296 296 295 294 293 292 292 292 291 291 290 290 290 289 289 288 289 289 289 289 289 288
311 311 311 311 311 311 311 311 311 318 324 326 323 320 319 316 314 305 298 296 296 295 295 294 293 292 292 292 291 291 291 290 290 289 289 289 288 288 289 289 288 288 288
310 311 311 310 310 310 310 310 311 314 324 325 320 319 317 316 308 300 296 296 295 295 294 293 292 292 291 291 291 291 290 290 290 289 289 288 288 288 288 288 289 288 288
310 310 310 310 311 311 311 310 316 321 321 321 320 319 316 312 303 297 295 295 295 294 293 292 292 291 291 291 291 291 290 290 289 289 288 288 288 288 288 288 288 287 287
310 310 310 312 312 313 312 316 320 321 320 318 318 316 314 306 298 295 295 295 294 293 292 292 291 291 291 291 291 290 290 290 289 289 288 288 288 288 288 288 287 287 286
309 310 311 312 312 314 317 318 321 320 320 318 317 314 310 301 296 295 295 294 293 292 291 291 291 291 291 291 290 290 290 289 289 288 288 287 288 288 288 288 287 286 286
310 310 310 312 313 316 317 319 319 318 318 317 316 309 302 297 295 295 294 293 292 291 291 290 290 290 293 290 289 289 289 289 288 288 287 287 287 288 287 287 286 286 286
310 310 310 311 312 315 316 318 318 317 316 315 311 304 299 295 295 294 293 292 291 291 290 290 293 296 290 289 289 289 289 288 288 288 287 287 287 287 287 287 286 286 286
309 310 309 310 312 313 315 316 317 316 314 311 302 297 296 295 294 293 292 291 290 290 290 297 297 292 289 288 288 288 288 287 287 287 286 286 287 287 287 286 286 286 285
308 308 308 309 311 311 313 314 314 313 310 302 297 295 294 294 293 292 291 290 290 290 297 297 295 292 288 288 287 287 287 287 286 286 286 286 286 286 286 286 286 285 285
307 307 307 307 308 311 312 312 312 310 305 299 296 294 294 293 292 290 290 290 290 299 297 296 295 289 288 287 287 287 287 286 286 286 286 286 286 286 286 285 285 285 285
306 306 306 306 306 308 310 310 308 304 299 297 295 294 293 293 291 289 290 290 298 297 296 296 290 287 287 287 287 286 286 286 285 285 285 285 285 285 285 285 285 284 284
305 305 304 304 304 304 305 306 305 302 298 295 294 293 293 292 290 289 290 297 297 297 296 293 287 287 286 286 286 286 286 285 285 285 285 284 284 284 284 284 284 284 284
305 304 304 303 302 302 302 302 302 300 298 297 295 294 294 292 291 291 297 298 298 296 296 288 287 286 286 286 286 285 285 285 284 284 284 284 283 284 284 283 283 283 283
303 303 302 302 301 301 300 300 298 297 296 295 294 293 293 292 289 295 298 297 296 297 291 287 286 286 286 285 285 285 285 284 284 284 283 283 283 283 283 282 282 282 282
303 301 301 300 299 300 299 299 298 297 295 294 293 292 291 289 291 298 296 295 295 293 286 286 286 286 285 285 285 284 284 284 283 283 282 282 282 282 282 281 281 281 281
302 301 299 298 298 297 297 297 297 296 295 295 293 292 290 288 296 296 295 295 296 288 286 286 286 286 285 285 284 284 283 283 283 282 282 282 282 281 281 281 280 280 279
300 300 299 297 296 295 295 294 294 294 294 293 292 292 292 289 294 294 295 295 296 291 287 287 286 285 285 284 284 283 283 282 282 281 281 281 281 280 280 279 279 278 278
299 298 297 296 295 294 294 293 293 292 292 291 291 292 292 290 293 296 295 296 295 294 291 286 285 285 284 284 283 283 282 282 281 281 281 280 280 279 279 278 278 277 277
296 297 297 296 294 292 291 291 291 291 291 291 291 291 290 292 294 294 296 296 296 293 288 286 285 284 284 283 283 282 282 281 281 281 280 279 279 278 278 277 277 276 276
293 294 295 295 293 291 290 289 289 289 289 289 289 290 289 292 294 296 295 296 295 287 286 285 284 283 283 282 282 281 281 280 280 279 279 278 278 277 276 276 276 275 275
288 290 292 293 293 292 291 290 289 288 288 287 288 289 288 291 293 293 292 293 290 285 284 284 283 283 282 282 281 280 280 279 279 278 278 277 277 276 275 275 275 274 274
286 286 287 289 291 292 290 289 289 288 287 287 287 287 287 285 287 289 290 288 283 283 282 282 282 282 281 281 280 280 279 278 278 277 277 276 275 275 274 275 274 274 273
286 286 286 286 287 288 289 289 288 287 287 287 287 288 288 287 288 288 287 286 283 282 282 281 280 280 280 280 279 278 278 277 277 276 276 275 274 274 274 274 273 273 272
285 285 285 285 285 285 286 286 287 287 286 286 285 285 285 285 285 285 284 283 281 280 281 280 280 280 279 278 278 277 277 276 276 275 275 274 274 274 273 273 272 272 271
Wind_Speed
41 40 38 37 36 36 37 37 36 34 37 38 33 28 26 25 26 24 23 21 19 16 14 12 10 9 7 6 5 6 8 9 11 14 16 17 20 21 21 21 22 22 24
39 37 36 36 38 38 39 38 36 35 39 38 36 29 24 26 24 25 23 21 19 17 14 13 11 8 7 5 5 6 9 11 12 14 16 17 18 20 20 20 20 20 23
34 35 36 36 37 38 39 39 35 35 40 39 37 29 26 27 26 26 24 22 19 17 14 13 11 9 7 5 5 6 9 12 14 14 15 16 17 19 20 18 18 18 19
31 33 33 34 34 36 36 36 34 36 39 41 35 26 28 27 29 28 26 23 20 17 16 14 13 10 7 5 5 7 10 12 14 15 16 15 17 18 19 21 19 18 19
28 29 29 29 30 31 31 32 33 38 37 42 33 28 30 32 31 28 26 23 20 19 17 15 13 10 7 6 7 8 10 12 13 15 15 15 17 18 19 20 20 20 20
26 26 25 25 25 26 27 30 33 36 41 36 33 29 34 32 30 28 25 23 22 20 18 17 14 11 8 7 9 10 11 12 13 14 15 17 17 18 18 18 18 20 19
24 24 24 24 25 26 27 30 35 38 39 39 32 34 34 33 30 28 26 24 21 19 19 17 15 12 9 10 10 11 11 13 15 15 16 16 18 17 18 16 15 17 20
24 25 26 26 27 28 29 32 38 40 37 37 37 37 35 33 31 29 27 25 23 21 20 18 15 10 14 13 12 11 12 12 13 15 16 16 18 18 16 16 16 18 19
27 28 28 28 29 30 33 35 36 39 40 39 38 39 38 35 32 30 28 26 23 22 20 16 12 12 19 17 14 13 14 13 14 15 15 16 17 17 18 16 16 19 21
28 28 28 29 30 33 35 36 38 39 40 40 39 38 35 33 32 30 29 26 24 22 18 14 15 18 22 19 16 15 15 14 15 15 14 15 17 18 18 18 18 20 21
23 28 30 32 33 31 35 38 39 41 41 40 39 37 36 34 32 32 29 25 22 21 17 16 17 22 24 20 18 17 16 16 16 16 16 16 16 19 20 20 20 21 23
19 24 29 32 33 35 38 39 40 41 40 41 41 40 39 36 33 30 27 24 22 18 16 17 20 27 24 21 19 18 18 18 17 17 19 18 19 20 21 21 23 24 24
16 19 23 28 33 35 37 40 42 43 44 45 44 43 41 37 34 31 27 25 20 18 19 19 26 25 23 22 21 20 20 19 18 20 19 19 19 21 21 22 23 25 26
13 15 17 23 29 33 36 38 41 45 47 47 45 43 41 39 36 32 29 24 21 20 18 23 27 26 25 24 22 22 21 20 20 20 21 20 20 21 22 24 24 24 26
11 13 15 18 23 29 36 39 43 45 46 47 46 45 42 39 35 30 27 21 20 18 21 29 29 28 26 26 24 23 23 22 21 21 21 21 22 22 23 24 25 24 24
10 12 14 17 19 25 31 38 42 45 45 45 44 41 38 35 32 28 23 20 21 28 30 32 30 28 28 27 25 24 23 22 22 21 21 22 23 23 23 23 24 24 23
11 12 14 16 19 23 28 33 40 44 45 46 44 40 38 33 33 28 21 23 39 29 34 34 32 30 29 28 27 25 24 23 22 22 22 22 23 22 22 21 22 23 23
13 14 15 16 18 22 26 30 35 43 46 47 45 40 37 37 33 27 28 36 32 35 37 36 32 31 30 30 28 26 24 24 23 22 22 22 22 22 21 21 21 21 21
15 15 16 18 19 21 23 27 33 38 43 46 42 43 43 42 38 38 40 44 35 36 37 36 33 32 32 31 29 28 26 25 22 22 22 22 21 21 21 21 20 20 20
18 16 16 18 20 22 23 26 30 34 38 43 46 47 45 44 43 43 44 38 36 37 42 38 36 36 34 32 31 29 28 25 23 23 23 22 21 20 19 19 19 19 19
20 20 20 19 20 21 23 26 28 31 35 40 46 46 46 44 48 51 46 44 45 43 40 38 38 37 34 33 32 30 28 25 25 24 23 22 20 19 18 19 18 18 18
20 21 22 21 21 22 24 25 27 30 33 37 43 46 46 45 48 49 48 47 44 40 36 37 38 36 35 33 32 31 28 27 26 25 23 21 20 19 19 18 17 17 19
19 20 21 22 22 24 24 25 28 30 33 37 42 46 49 47 49 49 48 48 43 38 40 42 40 37 35 34 32 31 29 27 26 25 23 21 20 20 20 18 17 18 20
21 21 21 22 23 23 25 26 27 29 31 35 39 43 47 45 41 44 45 43 37 40 40 41 39 37 35 34 33 31 29 28 27 25 23 22 21 21 21 19 19 19 21
24 24 25 25 26 26 27 28 29 30 31 33 36 41 44 48 47 42 41 36 36 38 38 39 37 36 35 34 33 31 30 28 27 25 24 23 23 23 22 21 21 21 22
27 28 28 28 28 28 29 30 31 32 34 35 37 39 39 40 40 38 38 37 37 39 38 38 37 35 34 34 33 31 30 28 27 25 25 25 25 25 24 23 23 23 24
Wind_Direction
232 234 235 237 239 241 242 243 243 239 233 228 231 228 232 239 238 232 218 216 217 219 227 237 247 254 264 279 309 325 344 345 342 334 339 346 352 357 3 1 358 357 351
231 233 235 236 239 241 242 242 237 233 231 234 222 221 234 231 229 218 216 216 217 221 229 238 243 242 246 264 294 323 334 339 341 338 339 347 349 352 357 357 357 354 347
232 235 237 239 241 244 244 242 237 226 227 228 216 219 237 228 216 212 214 215 218 223 231 235 234 230 232 249 289 316 330 333 336 337 337 338 346 347 349 354 353 349 350
236 240 244 247 248 246 242 237 228 225 220 220 211 225 233 220 213 212 213 215 219 224 229 227 222 219 221 250 284 312 323 330 332 332 336 336 343 344 345 340 344 348 349
243 246 247 245 242 237 232 231 220 217 223 212 216 231 221 212 212 212 213 217 221 224 225 221 216 214 225 254 285 302 317 323 328 330 332 334 336 338 340 336 334 339 344
248 248 247 245 241 231 230 220 221 212 227 208 217 227 213 210 211 212 215 220 222 222 220 216 212 216 228 256 275 298 308 315 321 325 330 330 331 330 329 329 327 333 341
248 245 243 240 233 224 221 216 223 214 218 212 225 218 212 211 213 213 215 219 221 222 217 214 212 219 241 262 271 287 301 310 317 322 324 321 319 322 319 317 315 321 325
249 248 242 236 229 221 224 222 221 212 212 220 220 211 212 212 212 214 216 218 219 217 216 216 219 231 263 259 265 278 289 298 308 313 316 314 312 314 314 309 305 309 313
246 245 242 238 230 221 221 221 218 218 220 218 215 212 212 212 212 214 216 218 218 216 214 218 233 252 259 260 264 271 280 290 301 305 307 309 307 308 305 298 296 302 309
250 249 246 242 236 226 224 223 221 221 222 218 213 213 215 215 216 217 217 217 217 214 211 226 243 252 259 261 265 268 275 282 289 292 295 299 301 301 295 288 287 291 298
255 250 245 242 239 233 228 227 225 222 219 214 213 215 215 216 217 216 217 219 216 208 226 240 247 254 259 262 265 270 275 278 282 289 292 293 294 293 290 281 280 282 289
258 255 249 244 240 235 230 230 228 224 218 216 216 216 216 216 216 215 214 216 207 222 233 245 253 255 258 262 266 271 274 275 281 283 286 290 288 285 287 283 278 280 283
258 257 252 246 243 239 234 230 225 221 219 218 218 217 217 217 215 214 213 204 217 227 239 251 253 256 259 261 262 264 267 273 275 279 284 286 283 280 281 282 281 280 280
262 262 258 249 244 241 237 234 230 226 223 222 222 221 221 219 217 212 204 212 222 240 256 254 252 254 256 257 257 259 263 266 270 275 279 283 283 283 283 283 281 280 279
267 265 261 256 250 245 241 238 234 233 234 233 230 229 226 223 222 214 213 230 246 261 260 248 247 248 249 250 252 254 260 265 269 272 278 282 284 284 284 281 279 279 278
284 274 266 260 254 249 243 240 237 236 236 237 237 238 234 230 220 211 225 248 269 271 241 245 246 247 248 250 252 255 258 262 266 272 275 279 282 282 282 280 279 278 277
301 283 273 266 261 257 250 244 239 238 236 235 234 232 229 226 212 225 245 266 269 243 244 246 245 247 248 249 251 253 256 259 263 267 272 276 279 281 280 279 279 277 277
303 289 279 275 270 264 259 254 248 241 237 235 230 227 226 217 220 232 249 261 245 243 245 248 248 248 249 250 251 252 254 255 259 264 269 272 275 277 278 278 276 274 275
308 299 292 282 276 272 268 263 256 251 244 238 231 224 225 220 228 242 243 258 243 249 252 251 249 248 250 250 251 252 254 256 259 264 269 271 272 272 272 272 271 272 272
315 305 293 286 281 276 272 267 263 258 252 245 234 230 228 218 228 237 247 250 246 248 249 250 248 248 249 249 250 251 253 255 259 263 267 268 268 269 271 270 271 273 273
317 313 304 293 284 281 278 275 273 268 260 251 239 234 231 232 241 245 245 252 250 254 253 250 248 247 248 249 249 250 251 254 259 263 264 265 266 267 267 268 270 272 272
319 317 313 306 295 287 282 278 274 271 267 258 246 239 233 238 247 250 256 252 254 252 250 247 246 246 248 250 250 250 250 253 257 261 262 262 264 264 263 263 267 270 271
322 317 313 309 302 293 286 283 281 275 269 259 250 245 237 244 247 254 255 252 252 248 247 247 246 248 249 249 248 249 250 253 255 256 258 260 261 261 261 264 267 268 269
314 312 309 306 301 294 288 286 283 278 273 266 259 254 251 255 267 275 273 263 253 250 248 247 247 249 248 247 247 247 248 250 253 255 255 257 258 259 262 264 264 265 267
307 307 306 303 300 297 291 284 279 277 274 271 268 266 264 264 272 275 269 256 254 253 251 250 248 247 248 247 247 247 247 247 250 252 254 255 255 256 258 262 264 266 267
303 301 300 298 296 294 291 289 285 281 277 273 270 270 270 271 272 270 263 254 251 251 249 250 248 248 248 247 246 245 247 248 249 252 254 254 255 256 259 261 261 263 265